Time,TemperatureF,DewpointF,PressureIn,WindDirection,WindDirectionDegrees,WindSpeedMPH,WindSpeedGustMPH,Humidity,HourlyPrecipIn,Conditions,Clouds,dailyrainin,SoftwareType,DateUTC
2013-07-20 00:12:00,81.0,75.0,29.94,ENE,73,1.0,-999.0,82,-99.99,,,-99.99,,2013-07-20 04:12:00,
2013-07-20 00:33:00,78.0,72.0,29.95,NW,325,1.0,-999.0,82,-99.99,,,-99.99,,2013-07-20 04:33:00,
2013-07-20 00:44:00,75.0,70.0,29.94,NE,41,3.0,-999.0,85,-99.99,,,-99.99,,2013-07-20 04:44:00,
2013-07-20 00:52:00,74.0,70.0,29.92,East,79,1.0,-999.0,86,-99.99,,,-99.99,,2013-07-20 04:52:00,
2013-07-20 01:02:00,74.0,70.0,29.92,East,79,1.0,-999.0,86,-99.99,,,-99.99,,2013-07-20 05:02:00,
2013-07-20 01:12:00,74.0,70.0,29.92,ENE,67,1.0,-999.0,88,-99.99,,,-99.99,,2013-07-20 05:12:00,
2013-07-20 01:22:00,73.0,69.0,29.91,ENE,70,1.0,-999.0,87,-99.99,,,-99.99,,2013-07-20 05:22:00,
2013-07-20 01:32:00,73.0,70.0,29.88,East,84,2.0,-999.0,89,-99.99,,,-99.99,,2013-07-20 05:32:00,
2013-07-20 01:52:00,72.0,70.0,29.86,East,84,0.0,-999.0,92,-99.99,,,-99.99,,2013-07-20 05:52:00,
2013-07-20 02:01:00,72.0,70.0,29.86,East,84,0.0,-999.0,92,-99.99,,,-99.99,,2013-07-20 06:01:00,
2013-07-20 02:11:00,72.0,70.0,29.85,ENE,71,0.0,-999.0,93,-99.99,,,-99.99,,2013-07-20 06:11:00,
2013-07-20 02:22:00,72.0,70.0,29.83,ENE,71,0.0,-999.0,93,-99.99,,,-99.99,,2013-07-20 06:22:00,
2013-07-20 02:32:00,72.0,70.0,29.83,ENE,71,0.0,-999.0,93,-99.99,,,-99.99,,2013-07-20 06:32:00,
2013-07-20 02:43:00,72.0,70.0,29.83,ENE,71,0.0,-999.0,93,-99.99,,,-99.99,,2013-07-20 06:43:00,
2013-07-20 02:52:00,72.0,70.0,29.81,ENE,71,0.0,-999.0,93,-99.99,,,-99.99,,2013-07-20 06:52:00,
2013-07-20 03:01:00,72.0,70.0,29.81,ENE,71,0.0,-999.0,92,-99.99,,,-99.99,,2013-07-20 07:01:00,
2013-07-20 03:12:00,72.0,70.0,29.81,ENE,71,0.0,-999.0,92,-99.99,,,-99.99,,2013-07-20 07:12:00,
2013-07-20 03:22:00,73.0,71.0,29.81,ENE,72,0.0,-999.0,92,-99.99,,,-99.99,,2013-07-20 07:22:00,
2013-07-20 03:33:00,74.0,71.0,29.81,ENE,72,0.0,-999.0,91,-99.99,,,-99.99,,2013-07-20 07:33:00,
2013-07-20 03:44:00,74.0,71.0,29.81,ENE,72,0.0,-999.0,91,-99.99,,,-99.99,,2013-07-20 07:44:00,
2013-07-20 03:54:00,74.0,71.0,29.88,NW,324,1.0,-999.0,90,-99.99,,,-99.99,,2013-07-20 07:54:00,
2013-07-20 04:02:00,71.0,69.0,29.88,North,360,4.0,-999.0,92,-99.99,,,-99.99,,2013-07-20 08:02:00,
2013-07-20 04:11:00,71.0,69.0,29.88,North,360,4.0,-999.0,92,-99.99,,,-99.99,,2013-07-20 08:11:00,
2013-07-20 04:22:00,70.0,68.0,29.89,North,5,3.0,-999.0,93,-99.99,,,-99.99,,2013-07-20 08:22:00,
2013-07-20 04:32:00,69.0,68.0,29.88,North,355,1.0,-999.0,95,-99.99,,,-99.99,,2013-07-20 08:32:00,
2013-07-20 04:44:00,69.0,68.0,29.88,North,355,1.0,-999.0,95,-99.99,,,-99.99,,2013-07-20 08:44:00,
2013-07-20 04:52:00,69.0,68.0,29.90,North,355,0.0,-999.0,95,-99.99,,,-99.99,,2013-07-20 08:52:00,
2013-07-20 05:02:00,69.0,68.0,29.91,North,355,0.0,-999.0,96,-99.99,,,-99.99,,2013-07-20 09:02:00,
2013-07-20 05:11:00,69.0,68.0,29.91,North,355,0.0,-999.0,96,-99.99,,,-99.99,,2013-07-20 09:11:00,
2013-07-20 05:22:00,70.0,69.0,29.92,North,355,0.0,-999.0,96,-99.99,,,-99.99,,2013-07-20 09:22:00,
2013-07-20 05:33:00,70.0,69.0,29.87,NNE,22,0.0,-999.0,96,-99.99,,,-99.99,,2013-07-20 09:33:00,
2013-07-20 05:43:00,70.0,69.0,29.87,NNE,22,0.0,-999.0,96,-99.99,,,-99.99,,2013-07-20 09:43:00,
2013-07-20 05:53:00,70.0,69.0,29.85,NNE,22,0.0,-999.0,97,-99.99,,,-99.99,,2013-07-20 09:53:00,
2013-07-20 06:01:00,70.0,69.0,29.87,NNE,22,0.0,-999.0,97,-99.99,,,-99.99,,2013-07-20 10:01:00,
2013-07-20 06:11:00,70.0,69.0,29.87,NNE,22,0.0,-999.0,97,-99.99,,,-99.99,,2013-07-20 10:11:00,
2013-07-20 06:22:00,70.0,69.0,29.86,NNE,22,0.0,-999.0,97,-99.99,,,-99.99,,2013-07-20 10:22:00,
2013-07-20 06:32:00,70.0,69.0,29.86,NNE,22,0.0,-999.0,97,-99.99,,,-99.99,,2013-07-20 10:32:00,
2013-07-20 06:42:00,70.0,69.0,29.87,NNE,22,0.0,-999.0,97,-99.99,,,-99.99,,2013-07-20 10:42:00,
2013-07-20 06:52:00,70.0,69.0,29.86,NNE,22,0.0,-999.0,97,-99.99,,,-99.99,,2013-07-20 10:52:00,
2013-07-20 07:02:00,70.0,69.0,29.86,NNE,22,0.0,-999.0,97,-99.99,,,-99.99,,2013-07-20 11:02:00,
2013-07-20 07:11:00,70.0,69.0,29.88,NNE,22,0.0,-999.0,97,-99.99,,,-99.99,,2013-07-20 11:11:00,
2013-07-20 07:32:00,70.0,69.0,29.89,NNE,22,0.0,-999.0,97,-99.99,,,-99.99,,2013-07-20 11:32:00,
2013-07-20 07:43:00,69.0,68.0,29.89,NNE,25,0.0,-999.0,97,-99.99,,,-99.99,,2013-07-20 11:43:00,
2013-07-20 07:52:00,69.0,68.0,29.89,NE,55,0.0,-999.0,97,-99.99,,,-99.99,,2013-07-20 11:52:00,
2013-07-20 08:01:00,69.0,68.0,29.89,NE,55,0.0,-999.0,97,-99.99,,,-99.99,,2013-07-20 12:01:00,
2013-07-20 08:11:00,69.0,68.0,29.91,NE,55,0.0,-999.0,97,-99.99,,,-99.99,,2013-07-20 12:11:00,
2013-07-20 08:32:00,69.0,68.0,29.93,NE,55,0.0,-999.0,97,-99.99,,,-99.99,,2013-07-20 12:32:00,
2013-07-20 08:52:00,69.0,68.0,29.87,NE,55,0.0,-999.0,98,-99.99,,,-99.99,,2013-07-20 12:52:00,
2013-07-20 09:11:00,69.0,68.0,29.89,NE,55,0.0,-999.0,98,-99.99,,,-99.99,,2013-07-20 13:11:00,
2013-07-20 09:22:00,69.0,68.0,29.90,NE,55,0.0,-999.0,98,-99.99,,,-99.99,,2013-07-20 13:22:00,
2013-07-20 09:43:00,69.0,68.0,29.93,North,360,0.0,-999.0,98,-99.99,,,-99.99,,2013-07-20 13:43:00,
2013-07-20 09:53:00,69.0,68.0,29.90,SSW,209,0.0,-999.0,98,-99.99,,,-99.99,,2013-07-20 13:53:00,
2013-07-20 10:02:00,69.0,68.0,29.90,SSW,209,0.0,-999.0,98,-99.99,,,-99.99,,2013-07-20 14:02:00,
2013-07-20 10:11:00,69.0,68.0,29.88,SSW,210,0.0,-999.0,98,-99.99,,,-99.99,,2013-07-20 14:11:00,
2013-07-20 10:22:00,69.0,68.0,29.89,SSW,211,0.0,-999.0,98,-99.99,,,-99.99,,2013-07-20 14:22:00,
2013-07-20 10:32:00,69.0,68.0,29.89,SSW,211,0.0,-999.0,98,-99.99,,,-99.99,,2013-07-20 14:32:00,
2013-07-20 10:43:00,69.0,68.0,29.89,SSW,210,0.0,-999.0,98,-99.99,,,-99.99,,2013-07-20 14:43:00,
2013-07-20 10:53:00,69.0,68.0,29.89,SSW,210,0.0,-999.0,98,-99.99,,,-99.99,,2013-07-20 14:53:00,
2013-07-20 11:01:00,70.0,69.0,29.88,SSW,211,0.0,-999.0,98,-99.99,,,-99.99,,2013-07-20 15:01:00,
2013-07-20 11:11:00,70.0,69.0,29.88,SSW,211,0.0,-999.0,98,-99.99,,,-99.99,,2013-07-20 15:11:00,
2013-07-20 11:22:00,70.0,69.0,29.89,SSW,211,0.0,-999.0,98,-99.99,,,-99.99,,2013-07-20 15:22:00,
2013-07-20 11:33:00,70.0,69.0,29.89,SSW,211,0.0,-999.0,98,-99.99,,,-99.99,,2013-07-20 15:33:00,
2013-07-20 11:44:00,70.0,69.0,29.89,SSW,211,0.0,-999.0,98,-99.99,,,-99.99,,2013-07-20 15:44:00,
2013-07-20 11:53:00,71.0,70.0,29.90,SSW,210,0.0,-999.0,98,-99.99,,,-99.99,,2013-07-20 15:53:00,
2013-07-20 12:01:00,71.0,70.0,29.89,SW,221,0.0,-999.0,98,-99.99,,,-99.99,,2013-07-20 16:01:00,
2013-07-20 12:11:00,71.0,70.0,29.89,SW,221,0.0,-999.0,98,-99.99,,,-99.99,,2013-07-20 16:11:00,
2013-07-20 12:22:00,71.0,70.0,29.89,SW,223,0.0,-999.0,98,-99.99,,,-99.99,,2013-07-20 16:22:00,
2013-07-20 12:32:00,71.0,70.0,29.89,SW,223,0.0,-999.0,98,-99.99,,,-99.99,,2013-07-20 16:32:00,
2013-07-20 12:43:00,71.0,70.0,29.89,SW,223,0.0,-999.0,98,-99.99,,,-99.99,,2013-07-20 16:43:00,
2013-07-20 12:52:00,71.0,70.0,29.89,SW,227,0.0,-999.0,98,-99.99,,,-99.99,,2013-07-20 16:52:00,
2013-07-20 13:02:00,72.0,71.0,29.89,West,269,0.0,-999.0,98,-99.99,,,-99.99,,2013-07-20 17:02:00,
2013-07-20 13:11:00,72.0,71.0,29.89,West,269,0.0,-999.0,98,-99.99,,,-99.99,,2013-07-20 17:11:00,
2013-07-20 13:22:00,74.0,68.0,29.89,SW,233,0.0,-999.0,83,-99.99,,,-99.99,,2013-07-20 17:22:00,
2013-07-20 13:32:00,75.0,68.0,29.89,West,271,1.0,-999.0,79,-99.99,,,-99.99,,2013-07-20 17:32:00,
2013-07-20 13:43:00,75.0,68.0,29.89,West,271,1.0,-999.0,79,-99.99,,,-99.99,,2013-07-20 17:43:00,
2013-07-20 13:53:00,75.0,67.0,29.89,WSW,239,1.0,-999.0,76,-99.99,,,-99.99,,2013-07-20 17:53:00,
2013-07-20 14:01:00,76.0,67.0,29.90,West,276,0.0,-999.0,75,-99.99,,,-99.99,,2013-07-20 18:01:00,
2013-07-20 14:12:00,76.0,67.0,29.90,West,276,0.0,-999.0,75,-99.99,,,-99.99,,2013-07-20 18:12:00,
2013-07-20 14:24:00,76.0,67.0,29.90,SSW,194,1.0,-999.0,75,-99.99,,,-99.99,,2013-07-20 18:24:00,
2013-07-20 14:36:00,76.0,67.0,29.90,West,273,0.0,-999.0,75,-99.99,,,-99.99,,2013-07-20 18:36:00,
2013-07-20 14:46:00,76.0,67.0,29.90,West,273,0.0,-999.0,75,-99.99,,,-99.99,,2013-07-20 18:46:00,
2013-07-20 14:59:00,76.0,67.0,29.89,WNW,292,1.0,-999.0,74,-99.99,,,-99.99,,2013-07-20 18:59:00,
2013-07-20 15:16:00,76.0,67.0,29.89,WNW,294,0.0,-999.0,74,-99.99,,,-99.99,,2013-07-20 19:16:00,
2013-07-20 15:26:00,76.0,67.0,29.89,WNW,294,0.0,-999.0,74,-99.99,,,-99.99,,2013-07-20 19:26:00,
2013-07-20 15:35:00,77.0,68.0,29.89,WNW,290,1.0,-999.0,74,-99.99,,,-99.99,,2013-07-20 19:35:00,
2013-07-20 15:44:00,77.0,68.0,29.89,WNW,290,1.0,-999.0,74,-99.99,,,-99.99,,2013-07-20 19:44:00,
2013-07-20 15:56:00,77.0,68.0,29.89,WNW,295,0.0,-999.0,73,-99.99,,,-99.99,,2013-07-20 19:56:00,
2013-07-20 16:06:00,78.0,69.0,29.89,WNW,295,0.0,-999.0,74,-99.99,,,-99.99,,2013-07-20 20:06:00,
2013-07-20 16:15:00,78.0,69.0,29.89,WNW,295,0.0,-999.0,74,-99.99,,,-99.99,,2013-07-20 20:15:00,
2013-07-20 16:24:00,78.0,69.0,29.88,WNW,295,0.0,-999.0,74,-99.99,,,-99.99,,2013-07-20 20:24:00,
2013-07-20 16:33:00,78.0,69.0,29.88,WNW,295,0.0,-999.0,74,-99.99,,,-99.99,,2013-07-20 20:33:00,
2013-07-20 16:45:00,78.0,69.0,29.88,WNW,295,0.0,-999.0,74,-99.99,,,-99.99,,2013-07-20 20:45:00,
2013-07-20 16:58:00,78.0,69.0,29.89,WNW,295,0.0,-999.0,75,-99.99,,,-99.99,,2013-07-20 20:58:00,
2013-07-20 17:15:00,79.0,70.0,29.89,WNW,295,0.0,-999.0,75,-99.99,,,-99.99,,2013-07-20 21:15:00,
2013-07-20 17:28:00,79.0,70.0,29.89,WSW,250,0.0,-999.0,73,-99.99,,,-99.99,,2013-07-20 21:28:00,
2013-07-20 17:45:00,79.0,70.0,29.89,WSW,249,0.0,-999.0,74,-99.99,,,-99.99,,2013-07-20 21:45:00,
2013-07-20 18:06:00,79.0,70.0,29.90,WNW,292,0.0,-999.0,73,-99.99,,,-99.99,,2013-07-20 22:06:00,
2013-07-20 18:17:00,79.0,70.0,29.90,WNW,292,0.0,-999.0,73,-99.99,,,-99.99,,2013-07-20 22:17:00,
2013-07-20 18:26:00,79.0,70.0,29.89,WNW,292,0.0,-999.0,73,-99.99,,,-99.99,,2013-07-20 22:26:00,
2013-07-20 18:34:00,79.0,70.0,29.89,WNW,293,0.0,-999.0,73,-99.99,,,-99.99,,2013-07-20 22:34:00,
2013-07-20 18:47:00,79.0,70.0,29.89,WNW,293,0.0,-999.0,73,-99.99,,,-99.99,,2013-07-20 22:47:00,
2013-07-20 18:57:00,79.0,70.0,29.88,WNW,292,0.0,-999.0,74,-99.99,,,-99.99,,2013-07-20 22:57:00,
2013-07-20 19:05:00,78.0,69.0,29.88,WNW,293,0.0,-999.0,74,-99.99,,,-99.99,,2013-07-20 23:05:00,
2013-07-20 19:17:00,78.0,69.0,29.88,WNW,293,0.0,-999.0,74,-99.99,,,-99.99,,2013-07-20 23:17:00,
2013-07-20 19:28:00,78.0,69.0,29.89,WNW,293,0.0,-999.0,74,-99.99,,,-99.99,,2013-07-20 23:28:00,
2013-07-20 19:36:00,78.0,69.0,29.89,WNW,293,0.0,-999.0,74,-99.99,,,-99.99,,2013-07-20 23:36:00,
2013-07-20 19:44:00,78.0,69.0,29.89,WNW,293,0.0,-999.0,74,-99.99,,,-99.99,,2013-07-20 23:44:00,
2013-07-20 20:07:00,77.0,68.0,29.89,WNW,293,0.0,-999.0,74,-99.99,,,-99.99,,2013-07-21 00:07:00,
2013-07-20 20:18:00,77.0,68.0,29.89,WNW,293,0.0,-999.0,74,-99.99,,,-99.99,,2013-07-21 00:18:00,
2013-07-20 20:24:00,77.0,68.0,29.90,WNW,292,0.0,-999.0,75,-99.99,,,-99.99,,2013-07-21 00:24:00,
2013-07-20 20:44:00,77.0,68.0,29.90,WNW,293,0.0,-999.0,75,-99.99,,,-99.99,,2013-07-21 00:44:00,
2013-07-20 20:56:00,77.0,68.0,29.90,WNW,293,0.0,-999.0,75,-99.99,,,-99.99,,2013-07-21 00:56:00,
2013-07-20 21:06:00,76.0,68.0,29.91,WNW,292,0.0,-999.0,76,-99.99,,,-99.99,,2013-07-21 01:06:00,
2013-07-20 21:28:00,76.0,68.0,29.91,WNW,293,0.0,-999.0,77,-99.99,,,-99.99,,2013-07-21 01:28:00,
2013-07-20 21:36:00,76.0,68.0,29.91,WNW,293,0.0,-999.0,77,-99.99,,,-99.99,,2013-07-21 01:36:00,
2013-07-20 21:46:00,-999.0,-99.9,29.91,WNW,293,0.0,-999.0,-999,-99.99,,,-99.99,,2013-07-21 01:46:00,
2013-07-20 21:59:00,76.0,69.0,29.92,WNW,292,0.0,-999.0,78,-99.99,,,-99.99,,2013-07-21 01:59:00,
2013-07-20 22:06:00,75.0,68.0,29.93,WNW,292,0.0,-999.0,78,-99.99,,,-99.99,,2013-07-21 02:06:00,
2013-07-20 22:17:00,75.0,68.0,29.93,WNW,292,0.0,-999.0,78,-99.99,,,-99.99,,2013-07-21 02:17:00,
2013-07-20 22:27:00,75.0,68.0,29.93,WNW,292,0.0,-999.0,79,-99.99,,,-99.99,,2013-07-21 02:27:00,
2013-07-20 22:36:00,75.0,68.0,29.94,WNW,293,0.0,-999.0,79,-99.99,,,-99.99,,2013-07-21 02:36:00,
2013-07-20 22:44:00,75.0,68.0,29.94,WNW,293,0.0,-999.0,79,-99.99,,,-99.99,,2013-07-21 02:44:00,
2013-07-20 22:58:00,74.0,67.0,29.94,WNW,293,0.0,-999.0,80,-99.99,,,-99.99,,2013-07-21 02:58:00,
2013-07-20 23:05:00,74.0,67.0,29.94,WNW,292,0.0,-999.0,80,-99.99,,,-99.99,,2013-07-21 03:05:00,
2013-07-20 23:14:00,74.0,67.0,29.94,WNW,292,0.0,-999.0,80,-99.99,,,-99.99,,2013-07-21 03:14:00,
2013-07-20 23:26:00,74.0,68.0,29.94,WNW,293,0.0,-999.0,81,-99.99,,,-99.99,,2013-07-21 03:26:00,
2013-07-20 23:36:00,74.0,68.0,29.94,WNW,293,0.0,-999.0,81,-99.99,,,-99.99,,2013-07-21 03:36:00,
2013-07-20 23:45:00,74.0,68.0,29.94,WNW,293,0.0,-999.0,81,-99.99,,,-99.99,,2013-07-21 03:45:00,